Falls City, NE

2:04 PM CST on February 08, 2016 (GMT -0600)
Brenner

Weather History for KFNB - February, 2014

Change the Weather History Date:

Thursday, February 27, 2014

  Actual Average Record
Temperature  
Mean Temperature 18 °F -  
Max Temperature 25 °F 49 °F 76 °F (1976)
Min Temperature 10 °F 27 °F -4 °F (2015)
Degree Days  
Heating Degree Days 48    
Moisture  
Dew Point 1 °F    
Average Humidity 49    
Maximum Humidity 81    
Minimum Humidity 28    
Precipitation  
Precipitation 0.00 in - - ()
Sea Level Pressure  
Sea Level Pressure 30.10 in    
Wind  
Wind Speed 9 mph (ENE)    
Max Wind Speed 15 mph    
Max Gust Speed 22 mph    
Visibility 10 miles    
Events      
Averages and records for this station are not official NWS values.
T = Trace of Precipitation, MM = Missing Value Source: NWS Daily Summary

Daily Weather History Graph

Daily Weather History Graph

Search for Another Location

Airport or City:

Trip Planner

Search our weather history database for the weather conditions in past years. The results will help you decide how hot, cold, wet, or windy it might be!

Date:

Astronomy

Feb. 27, 2014 Rise Set
Actual Time 6:58 AM CST 6:11 PM CST
Civil Twilight 6:31 AM CST 6:39 PM CST
Nautical Twilight 6:00 AM CST 7:10 PM CST
Astronomical Twilight 5:28 AM CST 7:42 PM CST
Moon 5:31 AM CST (2/27) 4:38 PM CST (2/27)
Length of Visible Light 12h 07m
Length of Day
11h 13m
Waning Crescent, 4% of the Moon is Illuminated
Feb 27
Waning Crescent
Mar 1
New
Mar 8
First Quarter
Mar 16
Full
Mar 23
Last Quarter

Hourly Weather History & Observations

Time (CST) Temp. Windchill Dew Point Humidity Pressure Visibility Wind Dir Wind Speed Gust Speed Precip Events Conditions
12:53 AM 19.9 °F 12.1 °F 15.1 °F 81% 30.04 in 10.0 mi WNW 5.8 mph - N/A   Clear
1:53 AM 19.9 °F 12.1 °F 15.1 °F 81% 30.06 in 10.0 mi North 5.8 mph - N/A   Clear
2:53 AM 19.0 °F 11.1 °F 12.0 °F 74% 30.08 in 10.0 mi North 5.8 mph - N/A   Clear
3:53 AM 18.0 °F 8.7 °F 10.0 °F 71% 30.10 in 10.0 mi NNW 6.9 mph - N/A   Clear
4:53 AM 16.0 °F 1.7 °F 7.0 °F 68% 30.12 in 10.0 mi NNE 13.8 mph 21.9 mph N/A   Clear
5:53 AM 12.9 °F -0.9 °F 3.9 °F 67% 30.15 in 10.0 mi NNE 11.5 mph - N/A   Clear
6:53 AM 10.9 °F -3.4 °F 3.0 °F 70% 30.19 in 10.0 mi NE 11.5 mph - N/A   Clear
7:53 AM 10.0 °F -5.2 °F -0.0 °F 64% 30.22 in 10.0 mi NE 12.7 mph - N/A   Clear
8:53 AM 12.0 °F -0.4 °F -6.0 °F 44% 30.23 in 10.0 mi NNE 9.2 mph - N/A   Clear
9:53 AM 14.0 °F 2.0 °F -6.0 °F 41% 30.23 in 10.0 mi NE 9.2 mph - N/A   Clear
10:53 AM 17.1 °F 5.0 °F -8.0 °F 33% 30.22 in 10.0 mi NNE 10.4 mph - 0.00 in   Clear
11:53 AM 19.0 °F 10.0 °F -6.0 °F 33% 30.19 in 10.0 mi Variable 6.9 mph - 0.00 in   Clear
12:53 PM 21.0 °F 9.3 °F -6.0 °F 30% 30.14 in 10.0 mi ENE 11.5 mph - N/A   Clear
1:53 PM 23.0 °F 15.8 °F -6.0 °F 28% 30.12 in 10.0 mi SE 5.8 mph - N/A   Clear
2:53 PM 24.1 °F 14.4 °F -4.0 °F 29% 30.08 in 10.0 mi East 9.2 mph - 0.00 in   Overcast
3:53 PM 25.0 °F 14.8 °F -4.0 °F 28% 30.06 in 10.0 mi East 10.4 mph - N/A   Overcast
4:53 PM 25.0 °F 15.5 °F -2.9 °F 30% 30.04 in 10.0 mi ESE 9.2 mph - N/A   Mostly Cloudy
5:53 PM 24.1 °F 15.2 °F -2.9 °F 31% 30.04 in 10.0 mi ESE 8.1 mph - N/A   Overcast
6:53 PM 23.0 °F 13.9 °F -0.0 °F 37% 30.05 in 10.0 mi ESE 8.1 mph - N/A   Overcast
7:53 PM 21.0 °F 10.6 °F 1.9 °F 44% 30.03 in 10.0 mi East 9.2 mph - N/A   Partly Cloudy
8:53 PM 19.9 °F 9.3 °F 3.0 °F 48% 30.01 in 10.0 mi East 9.2 mph - N/A   Clear
9:53 PM 19.9 °F 7.3 °F 3.0 °F 48% 29.99 in 10.0 mi East 12.7 mph - N/A   Clear
10:53 PM 21.0 °F 7.6 °F 3.9 °F 48% 29.96 in 10.0 mi ESE 15.0 mph - N/A   Scattered Clouds
11:53 PM 21.0 °F 7.6 °F 1.9 °F 44% 29.94 in 10.0 mi SE 15.0 mph - N/A   Clear